Temp
57 57 60 65 66 67 67 68 68 68 69 70 71 72 72 72 73 73 74 75 77 77 78 78 77 75 76 78 78 77 78 78 78 78 77 77 78 78 78 77 78 81 79
57 57 61 64 65 66 66 67 67 67 68 68 69 70 70 71 71 71 71 72 73 74 76 78 78 77 74 72 75 78 77 77 77 76 75 75 76 77 78 77 77 79 79
57 58 60 62 64 64 65 65 65 66 66 66 67 67 68 69 70 70 70 71 71 72 73 75 76 77 75 73 73 75 78 76 76 75 75 80 82 77 77 76 77 78 78
58 58 59 60 62 63 63 63 64 64 64 64 65 65 66 67 67 68 68 69 70 70 70 71 73 74 76 75 73 73 75 76 75 74 78 83 86 77 77 77 77 78 78
59 59 57 58 60 61 61 62 62 62 63 63 63 63 63 64 65 65 66 66 67 68 69 70 70 70 72 74 76 76 76 76 74 74 80 84 83 79 78 77 77 78 77
59 59 57 56 58 59 59 60 60 60 61 61 61 62 62 62 63 63 63 63 64 66 67 68 69 69 69 71 73 76 76 75 72 79 81 83 82 80 78 78 78 78 77
57 58 57 55 56 57 57 58 58 58 59 59 59 60 60 60 61 61 61 62 63 63 64 65 66 67 68 69 70 71 74 73 76 80 82 81 80 80 78 77 77 78 77
56 57 57 56 55 56 56 56 56 57 57 57 57 58 58 59 59 59 59 60 61 62 62 63 63 64 65 66 68 69 68 68 75 78 81 82 79 79 79 78 76 77 77
55 55 56 57 56 57 55 54 55 55 55 56 56 56 57 57 57 58 57 58 59 60 60 61 62 63 63 63 66 66 66 66 72 77 82 82 77 78 77 77 77 77 77
54 54 54 55 55 56 57 54 54 54 54 55 55 54 55 56 56 56 56 56 57 58 58 59 61 62 62 64 66 65 64 65 74 77 77 80 76 77 77 77 77 75 77
53 52 54 53 54 55 56 55 54 54 54 54 54 53 54 55 54 54 55 55 56 57 58 58 59 61 62 64 64 65 65 72 71 77 80 76 76 77 76 76 76 76 76
49 51 52 52 52 53 56 55 55 55 54 54 54 52 53 54 53 53 54 54 55 56 56 57 57 58 61 63 64 65 67 68 67 71 75 74 76 77 76 76 75 74 72
49 50 50 51 52 52 53 54 54 53 53 53 53 51 51 52 52 52 52 53 53 54 54 55 55 56 56 59 61 64 65 65 67 65 70 69 71 77 76 76 76 75 74
47 48 50 51 51 51 53 53 53 52 52 51 51 50 49 49 50 50 50 50 51 52 51 52 53 55 55 57 58 59 62 64 66 65 66 66 68 71 76 76 76 75 75
46 47 48 50 49 50 50 50 51 50 50 49 49 49 48 47 47 48 49 49 49 49 49 49 50 52 53 55 56 56 58 61 63 65 65 63 65 67 71 75 76 76 76
47 46 47 48 48 49 48 49 50 50 50 49 49 48 47 46 45 45 46 47 48 48 47 47 48 49 51 52 54 55 56 59 61 63 64 63 63 65 67 72 74 76 77
47 46 45 46 47 47 48 48 49 50 50 50 49 50 49 47 45 45 44 45 46 46 46 47 48 48 49 50 51 53 55 57 58 60 62 63 62 62 66 70 73 74 75
46 45 46 47 46 46 46 46 47 48 49 49 49 49 48 46 46 45 44 44 45 44 45 45 46 45 45 47 48 50 52 55 56 58 60 62 63 63 65 69 70 72 74
45 44 44 45 45 44 45 45 46 47 47 48 48 48 47 45 45 44 43 44 44 43 43 44 44 43 43 44 46 48 50 51 52 56 58 60 61 62 62 65 66 68 70
44 44 44 45 44 44 45 45 46 46 46 47 47 46 45 44 44 43 43 43 43 42 42 42 41 43 42 43 44 45 47 50 53 54 56 60 62 62 62 61 65 67 66
44 43 43 43 43 43 43 42 42 41 43 43 44 44 44 44 43 42 42 42 42 41 41 41 40 39 40 42 40 42 44 46 49 53 55 57 59 61 62 62 62 66 69
43 43 42 42 42 42 42 41 41 41 42 43 44 45 45 44 43 42 41 40 40 40 40 40 39 38 39 41 37 37 36 42 50 48 54 58 63 62 61 62 63 66 67
42 43 41 41 41 42 41 41 42 42 42 42 42 41 42 42 42 41 41 40 39 39 38 39 39 37 35 38 39 36 32 34 36 46 45 50 53 51 54 52 53 53 64
43 42 41 41 40 41 41 39 38 37 36 39 39 40 41 42 41 41 40 40 39 39 38 38 40 38 37 34 37 40 40 38 30 30 41 43 45 51 50 49 50 49 53
42 41 41 40 40 40 40 39 38 36 37 38 39 38 39 40 41 41 40 39 38 38 38 38 37 37 38 36 35 36 36 37 38 33 30 36 43 46 47 48 48 48 52
41 40 40 39 39 39 39 38 37 35 35 35 36 36 37 38 39 40 40 39 39 38 37 38 38 37 36 37 37 36 35 33 33 33 32 34 35 39 44 46 47 47 49
MSLP
1024.51 1024.64 1023.78 1022.58 1021.92 1021.30 1020.80 1020.02 1019.47 1018.91 1018.40 1017.80 1017.54 1017.12 1016.97 1016.62 1016.39 1016.16 1015.78 1015.26 1014.96 1014.74 1014.76 1014.78 1014.83 1014.97 1015.02 1015.13 1015.14 1015.07 1014.94 1014.92 1014.95 1014.99 1015.08 1015.18 1015.03 1015.06 1015.22 1015.20 1015.02 1015.05 1015.42
1024.64 1024.77 1023.98 1022.95 1022.27 1021.83 1021.18 1020.74 1020.14 1019.61 1019.22 1018.65 1018.35 1017.99 1017.69 1017.28 1016.95 1016.86 1016.56 1016.28 1015.77 1015.41 1015.19 1014.95 1014.88 1014.83 1015.09 1015.18 1015.50 1015.28 1015.22 1015.05 1015.18 1015.24 1015.33 1015.45 1015.48 1015.38 1015.43 1015.57 1015.46 1015.28 1015.59
1024.73 1024.76 1024.15 1023.50 1022.89 1022.33 1021.73 1021.41 1020.90 1020.29 1020.00 1019.51 1019.02 1018.77 1018.31 1017.90 1017.55 1017.24 1017.15 1016.86 1016.50 1016.29 1016.06 1015.53 1015.26 1015.19 1015.30 1015.44 1015.63 1015.41 1015.40 1015.29 1015.40 1015.44 1015.46 1015.08 1015.03 1015.58 1015.64 1015.75 1015.81 1015.64 1015.76
1024.73 1024.95 1024.57 1023.99 1023.31 1022.89 1022.35 1022.25 1021.70 1021.19 1020.83 1020.32 1020.01 1019.60 1019.10 1018.64 1018.34 1018.08 1017.93 1017.58 1017.21 1016.99 1016.74 1016.38 1015.94 1015.64 1015.43 1015.42 1015.41 1015.53 1015.61 1015.58 1015.68 1015.64 1015.41 1014.75 1014.22 1015.34 1015.73 1015.86 1015.97 1015.97 1015.96
1024.65 1024.90 1025.06 1024.50 1024.01 1023.53 1023.13 1022.62 1022.39 1021.99 1021.52 1021.07 1020.87 1020.24 1019.97 1019.70 1019.34 1019.24 1018.71 1018.32 1017.88 1017.54 1017.16 1016.89 1016.64 1016.43 1016.02 1015.68 1015.57 1015.55 1015.50 1015.66 1015.81 1015.82 1015.27 1014.58 1014.50 1014.96 1015.55 1015.82 1015.99 1016.13 1016.18
1024.65 1024.89 1025.13 1024.88 1024.41 1023.95 1023.49 1023.34 1023.01 1022.67 1022.23 1021.79 1021.43 1021.07 1020.62 1020.37 1019.95 1019.89 1019.50 1019.14 1018.67 1018.27 1017.77 1017.44 1017.12 1016.80 1016.56 1016.14 1015.80 1015.55 1015.55 1015.54 1015.84 1015.66 1015.19 1014.84 1014.97 1014.90 1015.34 1015.71 1015.86 1016.04 1016.32
1024.86 1024.94 1024.99 1025.13 1024.83 1024.55 1024.52 1024.17 1023.82 1023.23 1022.80 1022.44 1022.22 1021.61 1021.20 1020.99 1020.61 1020.52 1020.18 1019.83 1019.30 1018.98 1018.58 1018.17 1017.73 1017.32 1016.88 1016.51 1016.20 1015.95 1015.64 1015.62 1015.63 1015.34 1014.95 1014.98 1015.11 1015.17 1015.41 1015.63 1015.91 1016.05 1016.29
1025.05 1025.18 1025.16 1025.24 1025.27 1025.18 1025.07 1024.65 1023.97 1023.46 1023.07 1022.80 1022.47 1021.98 1021.70 1021.49 1021.34 1020.93 1020.76 1020.49 1019.76 1019.35 1019.14 1018.88 1018.42 1017.86 1017.36 1016.93 1016.50 1016.28 1016.18 1015.77 1015.38 1015.27 1014.72 1014.72 1014.95 1015.28 1015.47 1015.67 1015.95 1016.04 1016.30
1025.35 1025.36 1025.39 1025.41 1025.44 1025.07 1024.88 1024.60 1024.21 1024.01 1023.77 1023.48 1023.07 1022.63 1022.33 1021.90 1021.67 1021.26 1021.19 1020.80 1020.29 1019.89 1019.60 1019.24 1018.83 1018.31 1017.97 1017.55 1016.82 1016.55 1016.31 1015.91 1015.50 1014.91 1014.47 1014.39 1014.75 1015.15 1015.57 1015.66 1015.76 1015.90 1016.21
1025.45 1025.52 1025.51 1025.39 1025.32 1025.11 1024.98 1025.15 1024.80 1024.42 1024.18 1023.98 1023.51 1023.13 1022.52 1022.23 1021.87 1021.70 1021.28 1021.12 1020.64 1020.28 1019.90 1019.54 1019.19 1018.57 1018.10 1017.60 1017.03 1016.79 1016.42 1015.76 1015.21 1014.78 1014.48 1014.32 1014.74 1015.14 1015.43 1015.50 1015.56 1015.86 1015.99
1025.39 1025.69 1025.66 1025.66 1025.53 1025.24 1024.87 1024.82 1024.76 1024.73 1024.34 1023.73 1023.29 1023.18 1022.75 1022.36 1022.28 1022.12 1021.91 1021.46 1020.94 1020.50 1020.03 1019.75 1019.60 1018.88 1018.30 1017.58 1017.22 1016.88 1016.40 1015.58 1015.36 1014.44 1014.00 1013.98 1014.36 1014.78 1015.19 1015.30 1015.22 1015.32 1015.64
1025.48 1025.79 1025.87 1025.80 1025.67 1025.41 1025.05 1024.98 1024.78 1024.58 1024.45 1024.30 1024.14 1023.98 1023.59 1023.07 1022.87 1022.50 1022.06 1021.59 1021.29 1020.94 1020.32 1020.12 1019.72 1019.24 1018.52 1018.07 1017.51 1017.03 1016.51 1016.09 1015.99 1015.18 1014.39 1014.06 1013.89 1014.33 1014.72 1014.97 1015.17 1015.45 1015.82
1025.61 1025.80 1026.01 1025.88 1025.80 1025.57 1025.27 1025.06 1024.84 1024.72 1024.61 1024.36 1024.26 1024.29 1024.10 1023.69 1023.34 1023.04 1022.58 1022.09 1021.51 1021.03 1020.58 1020.40 1020.03 1019.73 1019.31 1018.79 1018.08 1017.59 1017.15 1016.81 1016.14 1015.87 1015.01 1014.50 1014.55 1014.05 1014.20 1014.52 1014.78 1015.12 1015.43
1025.72 1025.94 1026.04 1026.04 1025.90 1025.79 1025.48 1025.24 1025.02 1024.90 1024.96 1024.88 1024.74 1024.66 1024.50 1024.15 1023.82 1023.50 1022.86 1022.48 1022.25 1021.66 1021.19 1021.00 1020.61 1020.10 1019.58 1019.05 1018.72 1018.15 1017.55 1016.91 1016.32 1015.98 1015.45 1014.94 1014.57 1014.27 1013.86 1014.00 1014.18 1014.57 1014.81
1025.66 1025.95 1026.10 1026.12 1026.11 1026.03 1025.85 1025.74 1025.49 1025.37 1025.31 1025.43 1025.17 1025.02 1024.98 1024.59 1024.06 1023.69 1023.41 1023.01 1022.59 1022.11 1021.92 1021.46 1020.91 1020.32 1019.72 1019.18 1018.85 1018.41 1017.85 1017.18 1016.53 1015.96 1015.60 1015.08 1014.59 1014.43 1013.90 1013.51 1013.67 1013.87 1014.22
1025.62 1025.97 1026.20 1026.32 1026.46 1026.33 1026.12 1025.92 1025.61 1025.47 1025.50 1025.37 1025.31 1025.30 1025.33 1025.31 1024.99 1024.72 1024.23 1023.52 1022.97 1022.86 1022.73 1022.19 1021.47 1020.67 1020.23 1019.70 1018.91 1018.52 1018.00 1017.36 1016.65 1016.06 1015.58 1015.19 1014.66 1014.27 1013.87 1013.32 1013.25 1013.30 1013.46
1025.52 1025.94 1026.19 1026.32 1026.45 1026.33 1026.23 1026.15 1025.70 1025.44 1025.28 1024.91 1024.91 1024.95 1024.88 1024.88 1024.85 1024.83 1024.58 1024.15 1023.75 1023.63 1023.04 1022.43 1021.81 1021.02 1020.60 1019.90 1019.09 1018.51 1017.85 1017.16 1016.66 1016.19 1015.44 1015.02 1014.63 1014.15 1013.54 1013.21 1012.85 1012.75 1012.86
1025.49 1025.79 1026.09 1026.14 1026.18 1026.38 1026.41 1026.32 1025.96 1025.54 1025.26 1024.92 1024.81 1024.65 1024.86 1024.79 1024.56 1024.47 1024.32 1023.82 1023.47 1023.36 1022.96 1022.33 1021.67 1020.97 1020.75 1020.20 1019.26 1018.65 1017.97 1017.20 1016.65 1016.14 1015.46 1014.97 1014.23 1013.98 1013.28 1012.64 1012.33 1012.20 1012.29
1025.42 1025.76 1025.99 1026.20 1026.20 1026.35 1026.38 1026.37 1026.01 1025.65 1025.20 1024.98 1024.87 1024.67 1024.60 1024.87 1024.59 1024.34 1024.07 1023.52 1023.28 1023.26 1022.92 1022.38 1021.96 1021.57 1020.99 1020.41 1019.42 1018.44 1017.60 1017.10 1016.62 1015.87 1015.16 1014.59 1013.96 1013.54 1013.33 1012.54 1012.18 1011.64 1011.66
1025.41 1025.74 1025.97 1026.16 1026.31 1026.29 1026.15 1026.09 1025.74 1025.56 1025.24 1025.23 1024.90 1024.91 1024.94 1025.04 1024.83 1024.57 1024.29 1023.82 1023.45 1023.07 1022.83 1022.53 1022.24 1022.15 1021.70 1020.70 1019.46 1018.66 1017.67 1016.82 1015.98 1015.16 1014.42 1013.78 1013.23 1012.88 1012.84 1012.50 1011.92 1011.26 1010.92
1025.23 1025.45 1025.61 1026.05 1026.12 1026.20 1025.99 1025.89 1025.74 1025.59 1025.42 1025.21 1025.08 1024.99 1024.83 1024.77 1024.91 1024.93 1024.54 1024.16 1023.70 1023.53 1023.05 1022.68 1022.32 1021.85 1021.37 1020.93 1019.68 1018.22 1017.57 1016.58 1015.38 1014.47 1013.64 1013.12 1012.44 1012.15 1011.76 1011.65 1011.45 1010.73 1010.01
1024.82 1025.10 1025.36 1025.62 1025.79 1025.93 1026.01 1026.00 1025.89 1025.52 1025.36 1024.92 1024.73 1024.40 1024.37 1024.46 1024.63 1024.49 1024.36 1024.12 1023.75 1023.39 1022.97 1022.70 1022.32 1022.17 1021.71 1021.09 1020.20 1019.28 1016.98 1015.90 1014.58 1014.68 1013.47 1012.75 1011.72 1011.44 1011.19 1010.97 1010.32 1009.86 1009.54
1024.23 1024.64 1025.13 1025.34 1025.52 1025.66 1025.77 1025.77 1025.42 1025.05 1024.70 1024.41 1024.21 1024.19 1024.26 1024.32 1024.27 1024.19 1024.13 1023.86 1023.61 1023.25 1022.81 1022.52 1022.43 1022.27 1021.65 1021.07 1020.87 1020.42 1018.77 1016.73 1016.52 1014.71 1014.26 1013.36 1012.80 1012.59 1012.02 1011.98 1011.14 1010.81 1009.40
1023.58 1024.52 1024.98 1025.13 1025.23 1025.42 1025.49 1025.49 1025.31 1024.98 1024.74 1024.51 1024.28 1024.14 1024.12 1024.01 1023.86 1023.73 1023.62 1023.48 1023.25 1022.80 1022.72 1022.47 1022.12 1021.86 1021.48 1020.92 1020.60 1020.35 1019.77 1018.78 1018.17 1016.07 1015.15 1014.53 1014.06 1012.78 1012.32 1012.10 1011.59 1011.15 1010.30
1023.66 1024.07 1024.67 1024.81 1024.86 1025.09 1025.26 1025.35 1025.11 1024.95 1024.84 1024.52 1024.26 1024.06 1023.74 1023.58 1023.34 1023.11 1023.03 1022.87 1022.73 1022.44 1022.21 1022.00 1021.75 1021.43 1021.13 1020.82 1020.49 1020.07 1019.54 1018.98 1018.44 1017.46 1015.72 1014.60 1013.91 1013.50 1012.84 1012.41 1011.58 1011.03 1010.51
1023.39 1023.93 1024.34 1024.42 1024.66 1024.84 1024.96 1025.14 1024.98 1024.80 1024.70 1024.40 1024.01 1023.91 1023.45 1023.10 1022.88 1022.67 1022.51 1022.28 1022.10 1021.93 1021.72 1021.46 1021.21 1021.04 1020.85 1020.51 1020.19 1019.87 1019.52 1019.00 1018.16 1017.54 1016.57 1015.82 1014.54 1013.54 1013.22 1012.38 1011.56 1011.02 1010.31
Wind_Speed
9 11 20 20 22 23 24 26 26 26 26 27 26 26 26 26 27 26 26 25 19 17 15 12 3 2 5 7 7 2 3 2 3 4 6 5 7 7 5 5 6 9 8
6 9 15 19 20 22 23 24 25 26 26 26 26 25 24 24 24 24 25 25 25 26 18 16 13 6 10 7 11 5 2 3 3 3 4 4 3 4 4 2 7 11 7
8 8 13 17 19 21 22 23 24 25 25 25 25 25 25 25 25 25 25 25 24 25 25 23 16 13 5 8 6 10 4 2 2 2 5 7 8 6 4 2 2 8 7
7 7 13 17 19 21 22 22 23 24 24 25 25 25 25 25 25 25 24 24 23 22 22 23 24 19 12 3 6 2 9 2 2 3 6 10 7 10 6 5 4 6 7
8 8 12 16 18 20 21 22 23 23 24 24 24 24 25 25 25 24 24 24 23 22 21 20 21 21 21 14 5 5 7 4 4 5 10 5 7 12 10 9 8 7 7
8 9 12 16 17 20 21 21 22 22 23 24 24 24 24 24 24 24 24 24 24 23 22 21 21 20 20 18 17 8 7 4 5 8 9 4 5 7 10 12 10 9 8
9 9 11 16 16 18 20 20 20 22 22 23 24 24 23 23 24 23 24 25 24 23 23 22 21 20 19 18 17 17 10 7 7 10 9 6 5 8 7 10 12 10 10
8 8 9 11 13 13 17 18 20 22 22 23 23 24 22 21 22 22 23 24 24 24 23 22 21 21 21 19 16 16 14 12 8 10 10 6 6 5 9 10 13 12 11
8 8 8 9 10 11 15 20 20 20 21 21 22 23 21 20 21 22 21 23 23 23 23 22 22 21 20 19 16 15 16 14 8 7 10 5 7 8 10 12 13 14 13
8 8 9 9 10 10 10 14 15 18 19 19 20 22 20 19 20 21 20 22 21 21 21 22 22 22 20 17 15 15 18 17 9 9 7 5 5 6 10 13 12 17 16
6 8 8 9 9 9 9 10 12 14 16 18 19 22 16 12 14 17 18 21 21 20 20 20 21 22 19 15 16 18 16 6 10 7 6 8 12 11 11 13 12 19 18
6 6 7 8 9 9 8 9 10 10 10 10 12 15 11 13 12 14 15 19 20 19 19 20 19 20 17 11 9 13 8 9 7 9 7 8 13 14 14 15 11 15 12
5 5 6 7 8 9 7 7 5 6 7 8 13 12 11 10 10 8 7 8 10 15 9 13 12 9 13 10 10 10 11 9 7 6 11 18 17 14 14 17 15 16 22
5 5 5 6 7 8 6 6 7 6 7 8 10 12 10 7 9 9 7 11 10 9 12 11 8 12 13 12 13 13 13 11 7 7 9 19 20 19 17 18 18 17 17
5 4 5 6 7 8 8 7 7 8 7 9 9 10 10 11 11 11 10 9 9 10 11 11 11 11 13 13 12 13 14 14 14 8 7 17 20 21 21 19 21 20 20
5 4 4 5 6 7 7 9 7 6 7 6 6 6 7 7 9 10 11 11 10 9 10 10 11 11 10 12 13 13 14 13 14 14 9 10 21 22 22 23 22 23 22
5 3 4 4 6 7 7 8 6 6 7 6 6 8 7 7 8 9 8 8 9 10 13 10 10 10 10 11 13 13 12 14 12 14 12 9 11 19 21 24 25 24 23
4 4 3 4 5 7 8 7 7 7 7 7 7 7 10 11 10 9 8 8 9 9 9 10 10 10 10 10 10 10 10 12 14 15 13 12 10 10 13 20 25 23 24
5 3 3 4 5 5 6 6 7 8 7 7 7 7 10 12 12 10 9 9 11 9 9 9 9 11 10 11 12 12 11 10 13 13 15 14 14 12 10 16 20 23 24
5 3 0 2 3 4 4 6 5 6 6 7 7 7 9 8 10 11 10 11 11 9 9 9 12 10 10 11 12 13 11 12 11 11 13 12 12 13 13 14 13 12 22
6 4 1 3 3 3 4 6 6 7 7 7 7 9 9 8 8 9 8 9 10 10 11 12 11 12 9 11 10 10 11 16 16 13 12 13 14 14 15 13 11 11 11
6 4 2 3 3 4 4 5 6 6 7 7 7 8 8 9 10 9 10 9 11 9 11 11 11 9 9 9 10 11 8 10 6 11 9 10 11 7 8 10 14 16 16
9 5 3 3 4 5 6 6 6 7 7 7 7 8 8 11 11 11 11 10 10 10 9 10 10 12 10 9 11 8 7 6 14 8 15 11 11 11 8 10 12 13 15
7 5 4 3 4 5 6 7 9 8 9 8 9 8 10 12 12 12 11 11 11 9 10 10 9 9 10 10 9 9 12 11 8 10 9 13 15 11 13 9 10 12 14
7 4 3 4 4 5 7 8 7 9 8 8 8 12 12 11 12 12 11 11 11 9 10 12 12 12 9 9 9 9 11 9 11 12 12 13 11 9 10 12 10 10 12
8 5 4 4 5 6 7 9 10 11 11 10 10 10 9 9 9 11 12 11 11 11 11 10 12 13 12 11 10 11 9 10 9 10 12 13 16 13 12 12 10 9 9
Wind_Direction
357 357 339 4 8 11 16 19 23 22 23 24 26 27 26 31 30 27 29 29 23 20 17 12 64 230 337 10 349 6 151 111 77 72 90 79 97 105 111 144 189 113 117
360 358 340 6 11 14 20 19 22 24 24 26 26 24 25 26 27 26 27 26 28 27 20 17 13 46 107 320 330 313 278 143 99 93 126 127 89 119 134 252 316 120 137
24 6 4 11 15 20 22 19 22 24 23 25 26 23 23 24 25 24 22 22 24 23 21 24 17 19 158 167 269 339 290 177 146 151 219 229 181 165 171 254 74 130 147
42 19 21 14 18 23 23 23 23 24 23 24 24 24 21 23 23 23 21 21 22 21 16 18 20 17 9 228 201 268 307 243 219 213 234 250 178 157 186 184 194 165 160
56 40 26 22 24 26 24 26 23 24 25 24 21 24 22 21 22 20 21 19 18 18 15 13 13 14 14 2 271 263 252 242 230 237 253 267 298 160 182 189 192 198 192
48 45 36 26 24 25 27 23 23 23 23 22 20 20 21 19 20 18 18 18 16 11 11 11 5 5 8 8 0 314 282 237 225 248 265 275 262 142 185 197 216 199 204
52 37 35 25 24 27 24 21 22 23 22 21 19 18 18 17 16 15 14 13 14 11 8 6 1 358 358 357 360 358 313 283 250 258 242 243 215 252 242 221 213 204 199
53 44 38 38 25 24 23 23 23 21 20 19 16 14 13 14 11 13 12 8 8 7 6 2 359 356 352 347 346 348 342 343 253 253 269 252 241 220 244 254 221 206 209
51 42 36 33 21 20 29 16 17 19 18 15 15 13 8 9 9 8 8 6 5 3 0 359 355 354 349 341 337 337 334 327 296 263 268 245 198 196 246 248 219 211 211
52 41 31 25 23 17 18 26 19 14 10 11 12 9 6 4 7 1 4 0 359 360 357 356 352 350 346 338 342 335 328 307 258 251 262 265 135 214 241 245 237 210 215
69 43 36 25 22 13 17 17 13 12 11 9 8 5 1 1 2 354 352 354 353 356 354 355 350 347 346 341 338 342 318 327 328 287 248 231 203 223 241 252 256 209 208
72 60 33 28 20 11 12 7 9 6 5 8 8 4 358 355 357 353 348 351 349 350 350 351 350 345 350 342 334 335 330 326 314 303 292 307 196 218 230 243 240 210 231
84 62 41 28 20 15 9 2 8 5 359 0 3 7 355 354 352 355 344 348 346 350 352 348 344 347 340 334 329 324 318 311 308 300 299 315 322 232 228 238 237 222 214
99 68 47 32 23 19 3 5 2 4 0 360 356 3 354 352 350 350 347 347 345 346 344 344 337 331 330 326 325 319 313 309 298 306 296 298 302 304 249 239 240 234 228
119 83 49 32 19 10 7 1 359 359 358 349 349 353 354 351 348 346 343 340 340 345 341 336 332 330 325 323 321 314 310 306 302 296 293 298 300 294 287 246 244 237 233
126 93 53 37 19 9 7 358 351 345 341 331 332 338 341 341 340 339 337 337 340 346 333 326 325 326 319 318 314 312 304 299 295 292 286 290 293 292 284 269 246 241 235
127 103 52 32 16 6 357 349 340 335 331 329 337 335 341 347 335 329 325 324 331 333 326 323 319 321 319 316 313 310 305 301 299 293 291 281 286 288 284 271 254 243 239
133 97 62 24 8 1 350 342 336 334 330 334 338 336 339 345 337 331 323 322 331 323 323 323 324 327 319 314 311 306 297 297 296 292 287 284 275 280 287 276 248 238 236
140 96 43 9 358 351 339 329 326 328 325 331 327 333 339 333 336 332 325 325 330 321 320 320 325 323 319 312 306 306 301 298 289 284 279 275 274 268 272 280 278 236 230
156 152 197 339 319 332 320 316 312 317 322 324 318 319 328 319 324 327 321 320 323 321 317 321 317 314 307 305 308 305 292 287 283 277 278 279 271 259 259 261 269 252 227
177 194 240 317 328 314 324 320 326 319 314 310 317 310 303 309 305 304 301 302 309 306 311 312 311 310 313 313 304 308 305 278 272 268 259 255 252 250 252 255 256 254 233
183 189 225 299 308 321 316 319 304 300 300 297 290 296 314 309 313 303 305 300 301 300 302 301 305 309 304 309 314 312 304 317 277 321 295 282 281 313 300 289 257 252 253
193 188 239 300 310 309 311 302 302 299 300 306 314 316 315 310 307 300 296 294 294 291 294 299 297 294 298 305 302 291 312 319 338 302 327 303 336 323 322 331 326 332 288
180 183 235 278 302 301 315 308 308 308 305 312 310 308 306 300 298 296 294 290 291 292 287 285 282 288 294 293 295 286 281 288 289 302 304 318 304 301 316 319 311 321 320
179 198 244 276 301 298 305 305 306 300 301 303 300 300 297 294 291 295 294 294 291 289 288 289 290 287 283 282 282 288 286 285 282 280 287 297 292 299 322 301 311 309 316
187 206 253 285 295 309 309 301 296 294 296 298 298 297 293 297 297 293 290 290 290 289 286 285 287 285 282 277 276 274 274 277 283 289 290 290 296 300 298 296 291 309 302